カタログに戻る

UFO 8

USA 138

運用中軍事GEO
NORAD 25258·PAYLOAD·🇺🇸 United States

打ち上げ Mar 16, 1998 から Cape Canaveral Space Force Station

Loading…

TLE

最新Source: Space-Track

元期: Sep 14, 2026, 12:55 UTC

1 25258U 98016A   26257.53867788 -.00000223  00000-0  00000-0 0  9998
2 25258  11.2403  22.1899 0005137 231.1941  84.3444  1.00254969104753

AllMySatでUFO 8をリアルタイム追跡

Download on the App Store